This demonstration page uses our WeatherBlox Daily Observations layout. Learn more.

Left ArrowRight Arrow

39.08367, -84.50855

Hourly Observations for May 28, 2016

Temp ( °F °C ) Dew Point ( °F °C ) Humidity (%) Winds ( mph kmh ) Pressure ( in mb ) Visibility ( mi km ) Precip ( " mm )
12:53 am 00:53 Clear 68 20 67 19.4 96 96 Calm 30.01 1016 8 13 0.00 0.00
1:53 am 01:53 Clear with Mist and Fog 67 19.4 67 19.4 100 100 Calm 30.01 1016 6 10 0.00 0.00
2:53 am 02:53 Clear 66 18.9 66 18.9 100 100 Calm 30.00 1016 7 11 0.00 0.00
3:53 am 03:53 Clear 66 18.9 65 18.3 96 96 Calm 30.00 1016 7 11 0.00 0.00
4:53 am 04:53 Clear with Mist and Fog 64 17.8 64 17.8 100 100 Calm 30.02 1017 5 8 0.00 0.00
5:28 am 05:28 Clear with Mist and Fog 63 17 63 17 100 100 Calm 30.00 1016 3 4 0.00 0.00
5:37 am 05:37 Clear with Mist and Fog 64 17.8 64 17.8 100 100 Calm 30.00 1016 3 5 0.00 0.00
5:53 am 05:53 Clear with Mist and Fog 64 17.8 64 17.8 100 100 Calm 30.03 1017 4 6 0.00 0.00
5:57 am 05:57 Clear with Mist and Fog 63 17.2 63 17.2 100 100 Calm 30.03 1017 1 2 0.00 0.00
6:18 am 06:18 Mostly Cloudy with Mist and Fog 63 17 63 17 100 100 Calm 30.03 1017 1 2 0.00 0.00
6:21 am 06:21 Partly Cloudy with Mist and Fog 63 17.2 63 17.2 100 100 Calm 30.03 1017 3 4 0.00 0.00
6:28 am 06:28 Partly Cloudy with Mist and Fog 63 17 63 17 100 100 Calm 30.03 1017 3 5 0.00 0.00
6:36 am 06:36 Sunny with Mist and Fog 63 17 63 17 100 100 Calm 30.03 1017 2 3 0.00 0.00
6:39 am 06:39 Sunny with Fog 62 16.7 62 16.7 100 100 Calm 30.03 1017 1 1 0.00 0.00
6:46 am 06:46 Sunny with Fog 61 16 61 16 100 100 Calm 30.03 1017 5 8 0.00 0.00
6:53 am 06:53 Sunny with Fog 62 16.7 62 16.7 100 100 Calm 30.05 1018 6 10 0.00 0.00
7:53 am 07:53 Sunny 67 19.4 66 18.9 97 97 Calm 30.07 1018 7 11 0.00 0.00
8:53 am 08:53 Mostly Cloudy 72 22.2 68 20 87 87 SSW 5 7 30.08 1019 10 16 0.00 0.00
9:53 am 09:53 Mostly Cloudy 74 23.3 68 20 82 82 Calm 30.09 1019 10 16 0.00 0.00
10:53 am 10:53 Mostly Cloudy 76 24.4 68 20 77 77 S 10 17 30.10 1019 10 16 0.00 0.00
11:53 am 11:53 Cloudy with Rain 71 21.7 69 20.6 94 94 S 9 15 30.12 1020 3 4 0.03 0.76
12:00 pm 12:00 Cloudy with Light Rain 71 21.7 69 20.6 94 94 S 7 11 30.09 1019 5 8 0.00 0.03
12:53 pm 12:53 Mostly Sunny 78 25.6 71 21.7 79 79 Calm 30.11 1020 10 16 0.02 0.51
1:53 pm 13:53 Mostly Sunny 81 27.2 70 21.1 69 69 S 12 19 30.08 1019 10 16 0.00 0.00
2:53 pm 14:53 Partly Cloudy 82 27.8 68 20 63 63 SSW 12 19 30.06 1018 10 16 0.00 0.00
3:53 pm 15:53 Mostly Cloudy 83 28.3 68 20 61 61 SSW 12 19 30.05 1018 10 16 0.00 0.00
4:53 pm 16:53 Partly Cloudy 83 28.3 66 18.9 57 57 SW 9 15 30.04 1017 10 16 0.00 0.00
5:53 pm 17:53 Partly Cloudy 80 26.7 65 18.3 60 60 SSW 10 17 30.04 1017 10 16 0.00 0.00
6:53 pm 18:53 Mostly Sunny 81 27.2 65 18.3 58 58 SW 10 17 30.05 1018 10 16 0.00 0.00
7:53 pm 19:53 Mostly Sunny 77 25 63 17.2 62 62 SW 8 13 30.06 1018 10 16 0.00 0.00
8:53 pm 20:53 Mostly Sunny 72 22.2 65 18.3 79 79 S 5 7 30.07 1018 10 16 0.00 0.00
9:53 pm 21:53 Clear 69 20.6 64 17.8 84 84 Calm 30.08 1019 10 16 0.00 0.00
10:53 pm 22:53 Clear 67 19.4 64 17.8 91 91 Calm 30.08 1019 10 16 0.00 0.00
11:53 pm 23:53 Clear 65 18.3 65 18.3 100 100 Calm 30.08 1019 8 13 0.00 0.00

Powered by AerisWeather